This is the latest recevied weather packets stored in our database for station/object N1OF. If no packets are shown the sender has not sent any weather packets the latest 1 day(s).
| Time | Temp. | Humidity | Pressure | Rain* | Wind** | Luminosity | Snow |
|---|---|---|---|---|---|---|---|
| 1778044567 | 7.78° C | 97% | 1009.9 hPa | 4.83 mm | - | - | - |
| 1778044263 | 7.78° C | 97% | 1009.9 hPa | 3.05 mm | - | - | - |
| 1778043355 | 7.78° C | 97% | 1009.9 hPa | 1.78 mm | - | - | - |
| 1778043052 | 7.78° C | 97% | 1009.5 hPa | 0 mm | - | - | - |
| 1778042750 | 7.78° C | 97% | 1009.5 hPa | 1.27 mm | - | - | - |
| 1778042446 | 7.78° C | 97% | 1009.8 hPa | 1.27 mm | - | - | - |
| 1778042143 | 7.78° C | 97% | 1009.6 hPa | 0 mm | - | - | - |
| 1778041842 | 7.78° C | 97% | 1009.5 hPa | 0 mm | - | - | - |
| 1778041540 | 7.78° C | 97% | 1009.7 hPa | 1.78 mm | - | - | - |
| 1778041238 | 7.78° C | 97% | 1009.7 hPa | 1.78 mm | - | - | - |
| 1778040633 | 7.78° C | 97% | 1009.7 hPa | 3.05 mm | - | - | - |
| 1778040331 | 7.78° C | 97% | 1009.9 hPa | 1.78 mm | - | - | - |
| 1778039724 | 8.33° C | 97% | 1009.9 hPa | 3.05 mm | - | - | - |
| 1778039420 | 8.33° C | 97% | 1010 hPa | 1.78 mm | - | - | - |
| 1778039118 | 8.33° C | 97% | 1010 hPa | 1.27 mm | - | - | - |
| 1778038815 | 8.33° C | 97% | 1009.9 hPa | 1.78 mm | - | - | - |
| 1778038512 | 8.33° C | 97% | 1009.9 hPa | 3.56 mm | - | - | - |
| 1778038209 | 8.33° C | 97% | 1009.8 hPa | 3.05 mm | - | - | - |
| 1778037906 | 8.33° C | 97% | 1009.6 hPa | 1.78 mm | - | - | - |
| 1778036997 | 8.33° C | 97% | 1009.9 hPa | 3.05 mm | - | - | - |
| 1778036695 | 8.33° C | 97% | 1009.9 hPa | 3.05 mm | - | - | - |
| 1778036392 | 8.33° C | 97% | 1010 hPa | 1.78 mm | - | - | - |
| 1778036089 | 8.33° C | 97% | 1009.8 hPa | 1.27 mm | - | - | - |
| 1778035785 | 8.33° C | 97% | 1010.1 hPa | 3.05 mm | - | - | - |
| 1778035482 | 8.33° C | 97% | 1010 hPa | 3.05 mm | - | - | - |
* Rain latest hour (hover to see other rain measurements)
** Current wind speed in m/s (hover to see current wind gust speed)